Berlin, NH

2:28 PM EDT on March 29, 2017 (GMT -0400)
Berlin Municipal

Weather History for KBML - October, 2011

Change the Weather History Date:

Wednesday, October 26, 2011

  Actual Average Record
Temperature  
Mean Temperature 40 °F -  
Max Temperature 51 °F 47 °F 73 °F (2012)
Min Temperature 30 °F 26 °F 10 °F (1997)
Degree Days  
Heating Degree Days 24    
Moisture  
Dew Point 30 °F    
Average Humidity 62    
Maximum Humidity 92    
Minimum Humidity 39    
Precipitation  
Precipitation 0.00 in - - ()
Sea Level Pressure  
Sea Level Pressure 29.87 in    
Wind  
Wind Speed 4 mph (WNW)    
Max Wind Speed 8 mph    
Max Gust Speed -    
Visibility 10 miles    
Events      
Averages and records for this station are not official NWS values.
T = Trace of Precipitation, MM = Missing Value Source: NWS Daily Summary

Daily Weather History Graph

Daily Weather History Graph

Search for Another Location

Airport or City:

Trip Planner

Search our weather history database for the weather conditions in past years. The results will help you decide how hot, cold, wet, or windy it might be!

Date:

Astronomy

Oct. 26, 2011 Rise Set
Actual Time 7:13 AM EDT 5:42 PM EDT
Civil Twilight 6:43 AM EDT 6:12 PM EDT
Nautical Twilight 6:09 AM EDT 6:46 PM EDT
Astronomical Twilight 5:36 AM EDT 7:20 PM EDT
Moon 6:59 AM EDT (10/26) 5:20 PM EDT (10/26)
Length of Visible Light 11h 28m
Length of Day
10h 28m
Waning Crescent, 0% of the Moon is Illuminated
Oct 26
Waning Crescent
Oct 26
New
Nov 2
First Quarter
Nov 10
Full
Nov 18
Last Quarter

Hourly Weather History & Observations

Time (EDT) Temp. Windchill Dew Point Humidity Pressure Visibility Wind Dir Wind Speed Gust Speed Precip Events Conditions
12:52 AM 43.0 °F 39.5 °F 30.9 °F 62% 29.94 in 10.0 mi NNW 5.8 mph - N/A   Overcast
1:52 AM 42.1 °F 40.2 °F 32.0 °F 67% 29.94 in 10.0 mi SW 3.5 mph - N/A   Overcast
2:52 AM 41.0 °F 39.0 °F 33.1 °F 73% 29.95 in 10.0 mi Variable 3.5 mph - N/A   Overcast
3:52 AM 39.9 °F 34.5 °F 32.0 °F 73% 29.94 in 10.0 mi WNW 8.1 mph - N/A   Mostly Cloudy
4:52 AM 37.9 °F - 30.9 °F 76% 29.93 in 10.0 mi Calm Calm - N/A   Scattered Clouds
5:52 AM 37.9 °F 35.5 °F 28.9 °F 70% 29.93 in 10.0 mi WNW 3.5 mph - N/A   Clear
6:52 AM 30.0 °F - 28.0 °F 92% 29.94 in 10.0 mi Calm Calm - N/A   Clear
8:52 AM 37.9 °F - 32.0 °F 79% 29.95 in 10.0 mi Calm Calm - N/A   Clear
9:52 AM 43.0 °F 40.3 °F 30.0 °F 60% 29.92 in 10.0 mi Variable 4.6 mph - N/A   Clear
11:52 AM 46.9 °F - 28.9 °F 50% 29.88 in 10.0 mi Variable 3.5 mph - N/A   Clear
12:52 PM 48.0 °F - 27.0 °F 44% 29.84 in 10.0 mi WSW 5.8 mph - N/A   Clear
1:52 PM 51.1 °F - 27.0 °F 39% 29.83 in 10.0 mi WNW 4.6 mph - N/A   Overcast
3:52 PM 48.9 °F - 28.0 °F 44% 29.81 in 10.0 mi WSW 4.6 mph - N/A   Overcast
4:52 PM 48.0 °F - 27.0 °F 44% 29.79 in 10.0 mi WNW 4.6 mph - N/A   Mostly Cloudy
5:52 PM 45.0 °F - 27.0 °F 49% 29.78 in 10.0 mi Calm Calm - N/A   Mostly Cloudy
6:52 PM 45.0 °F 42.6 °F 27.0 °F 49% 29.81 in 10.0 mi NNW 4.6 mph - N/A   Overcast
7:52 PM 44.1 °F - 27.0 °F 51% 29.81 in 10.0 mi Calm Calm - N/A   Overcast
8:52 PM 41.0 °F - 32.0 °F 70% 29.81 in 10.0 mi Calm Calm - N/A   Overcast
10:52 PM 41.0 °F - 30.0 °F 65% 29.79 in 10.0 mi Calm Calm - N/A   Mostly Cloudy
11:52 PM 36.0 °F 33.3 °F 32.0 °F 86% 29.80 in 10.0 mi North 3.5 mph - N/A   Mostly Cloudy